Weather in Leninka

Russia / Tyumen Oblast     56°03′11″N   70°24′58″E
temp.,
°C
wind,
m/s
gust,
m/s
humid.,
%
clouds,
%
prec.,
mm/h
press.,
hPa
HPBL,
m
14 may, fri
fri1423:00+12n498818 0.9 1023164
02:00+11ne33905 0.0 102530
05:00+9ene34875 0.0 102766
08:00+14e22605 0.0 1027368
11:00+19nw1242100 0.0 10271057
14:00+22w23315 0.0 10261424
17:00+24w343034 0.0 10251448
20:00+19ssw4545100 0.0 102457
15 may, sat
sat1523:00+17ssw513464 0.0 1023206
02:00+17sw615465 0.0 1021290
05:00+18wsw6155383 0.2 1021343
08:00+22wsw610455 0.0 1020412
11:00+27w573331 0.0 10191074
14:00+30w682420 0.0 10183551
17:00+29wnw68285 0.0 10172924
20:00+22w494738 0.1 1016123
16 may, sun
sun1623:00+19w48525 0.3 1016113
02:00+17wnw38612 0.1 1015127
05:00+16wnw3468100 0.1 101666
08:00+22nnw46548 0.0 1017446
11:00+26nw47409 0.0 10171666
14:00+29wnw683162 0.0 10152652
17:00+29w6113136 0.0 10142996
20:00+23wnw474210 0.0 101590
17 may, mon
mon1723:00+20w36465 0.0 101567
02:00+18w4105255 0.0 1015137
05:00+17w410535 0.0 1016141
08:00+24wnw58395 0.0 1016326
11:00+29wnw710275 0.0 10152619
14:00+30wnw710225 0.0 10143097
17:00+30w69262 0.0 10133035
20:00+23wsw48455 0.0 1012108
18 may, tue
tue1823:00+21wsw51343100 0.0 1011246
02:00+18wnw375442 0.2 101299
05:00+16w476030 0.2 1011116
08:00+23wnw59465 0.0 1010555
11:00+26wnw81135100 0.0 10102464
14:00+27wnw693181 0.0 10083346
17:00+20nnw7125941 0.3 1009639
20:00+17nnw51081100 0.2 1010567